CZ-4C R/B (47696 NORAD) Tracking and Keplerian Element Data

This shows tracking and keplerian element data for the satellite.

Feedback or suggestion? Click here.




ElementValue
Catalog47696
NameCZ-4C R/B
Epoch Orbit393
Epoch Day83.86979551
Epoch Year2021
RAAN60.8387
Inclination63.4637
Eccentricity0.0117284
Argument of Perigee30.4768
Mean Anonmoly330.3019
Mean Motion13.68338871
Decay Rate-7.9E-07
L11 47696U 21014F 21083.86979551 -.00000079 00000-0 18306-4 0 9993
L22 47696 63.4637 60.8387 0117284 30.4768 330.3019 13.68338871 3938

Live tracking and technical data element details for CZ-4C R/B (NORAD 47696). CZ-4C R/B can be tracked NOW for your location showing map with azimuth and elevation plus other details from your city location.

Track the satellite on the map from your city or location and see movement details for azimuth, elevation, latitude, longitude, range, height, and movement on the map or in text.







IsCatalogInMostPopularTable: catalog: 47696, numindb: 14
Update: records affected: 1



GetName: 47696 CZ-4C R/B

Hit Count: updated at: Tue, 13 Apr 2021 05:00:34 GMT